�������l�o���
Date,Time,MP-1(��Sv/h),MP-2(��Sv/h),MP-3(��Sv/h),MP-4(��Sv/h),MP-5(��Sv/h),MP-6(��Sv/h),MP-7(��Sv/h),MP-8(��Sv/h),����,����(m/s),���J
2023/05/11,00:00,0.549,0.810,0.488,0.998,0.701,0.322,0.570,0.538,���k��,1.7,��
2023/05/11,00:10,0.551,0.811,0.488,0.996,0.701,0.320,0.570,0.540,�k��,1.2,��
2023/05/11,00:20,0.549,0.812,0.490,0.997,0.703,0.321,0.572,0.538,�k��,1.5,��
2023/05/11,00:30,0.550,0.808,0.488,0.998,0.701,0.321,0.569,0.541,�k�k��,1.4,��
2023/05/11,00:40,0.550,0.811,0.488,0.997,0.701,0.321,0.570,0.539,�k�k��,0.6,��
2023/05/11,00:50,0.550,0.810,0.489,0.996,0.701,0.322,0.571,0.538,�k�k��,1.1,��
2023/05/11,01:00,0.550,0.811,0.490,0.996,0.701,0.321,0.571,0.538,�k��,1.4,��
2023/05/11,01:10,0.549,0.810,0.488,0.999,0.701,0.321,0.571,0.539,�k��,1.5,��
2023/05/11,01:20,0.550,0.809,0.488,0.995,0.702,0.320,0.570,0.538,�k�k��,2.3,��
2023/05/11,01:30,0.550,0.810,0.489,0.997,0.701,0.321,0.569,0.539,�k�k��,2.3,��
2023/05/11,01:40,0.548,0.811,0.487,0.997,0.700,0.321,0.570,0.539,�k,2.3,��
2023/05/11,01:50,0.549,0.810,0.489,0.997,0.702,0.322,0.569,0.537,�k��,3.1,��
2023/05/11,02:00,0.550,0.811,0.490,0.998,0.701,0.320,0.570,0.539,�k�k��,4.2,��
2023/05/11,02:10,0.548,0.810,0.489,0.998,0.702,0.321,0.570,0.538,�k�k��,5.3,��
2023/05/11,02:20,0.550,0.811,0.488,1.000,0.702,0.320,0.572,0.540,�k�k��,4.9,��
2023/05/11,02:30,0.550,0.812,0.489,0.998,0.701,0.321,0.569,0.539,�k�k��,6.2,��
2023/05/11,02:40,0.549,0.809,0.488,0.998,0.702,0.321,0.570,0.539,�k�k��,6.0,��
2023/05/11,02:50,0.549,0.810,0.490,0.999,0.701,0.322,0.570,0.539,�k�k��,5.9,��
2023/05/11,03:00,0.547,0.810,0.489,0.998,0.701,0.320,0.571,0.538,�k�k��,5.2,��
2023/05/11,03:10,0.548,0.809,0.489,0.999,0.701,0.320,0.570,0.537,�k�k��,5.2,��
2023/05/11,03:20,0.549,0.810,0.489,0.998,0.702,0.320,0.569,0.538,�k�k��,4.7,��
2023/05/11,03:30,0.548,0.809,0.488,0.997,0.702,0.321,0.570,0.539,�k�k��,5.0,��
2023/05/11,03:40,0.549,0.808,0.488,0.996,0.699,0.322,0.570,0.539,�k�k��,4.8,��
2023/05/11,03:50,0.547,0.810,0.487,0.998,0.703,0.320,0.571,0.537,�k�k��,4.9,��
2023/05/11,04:00,0.550,0.809,0.489,0.999,0.702,0.321,0.570,0.537,�k�k��,5.5,��
2023/05/11,04:10,0.548,0.807,0.488,0.998,0.702,0.321,0.571,0.539,�k�k��,5.4,��
2023/05/11,04:20,0.549,0.810,0.488,0.998,0.703,0.320,0.571,0.538,�k�k��,5.6,��
2023/05/11,04:30,0.548,0.809,0.489,0.997,0.702,0.321,0.570,0.538,�k�k��,5.2,��
2023/05/11,04:40,0.548,0.809,0.487,0.998,0.701,0.322,0.570,0.538,�k�k��,5.1,��
2023/05/11,04:50,0.547,0.807,0.487,0.998,0.702,0.320,0.572,0.538,�k��,5.0,��
2023/05/11,05:00,0.547,0.809,0.487,0.997,0.702,0.319,0.570,0.538,�k�k��,4.1,��
2023/05/11,05:10,0.548,0.810,0.489,0.999,0.702,0.320,0.570,0.539,�k�k��,3.9,��
2023/05/11,05:20,0.548,0.810,0.488,0.996,0.701,0.321,0.571,0.539,�k��,4.8,��
2023/05/11,05:30,0.549,0.808,0.487,0.997,0.702,0.321,0.571,0.539,�k�k��,4.4,��
2023/05/11,05:40,0.548,0.810,0.487,0.999,0.703,0.320,0.571,0.539,�k�k��,4.5,�L
2023/05/11,05:50,0.549,0.809,0.489,0.998,0.702,0.321,0.570,0.538,�k�k��,4.5,��
2023/05/11,06:00,0.549,0.809,0.489,0.998,0.703,0.319,0.572,0.538,�k��,4.4,��
2023/05/11,06:10,0.550,0.811,0.488,0.998,0.702,0.320,0.570,0.538,�k��,4.1,��
2023/05/11,06:20,0.548,0.811,0.489,0.999,0.702,0.320,0.571,0.540,�k��,4.3,��
2023/05/11,06:30,0.549,0.812,0.488,0.998,0.702,0.321,0.571,0.538,�k��,4.1,��
2023/05/11,06:40,0.548,0.811,0.489,0.999,0.702,0.320,0.572,0.538,�k��,4.2,��
2023/05/11,06:50,0.550,0.811,0.489,1.000,0.704,0.321,0.570,0.539,�k�k��,4.9,��
2023/05/11,07:00,0.551,0.812,0.489,0.999,0.703,0.320,0.571,0.539,�k�k��,4.1,��
2023/05/11,07:10,0.551,0.810,0.490,1.000,0.701,0.320,0.572,0.539,�k�k��,4.3,��
2023/05/11,07:20,0.550,0.810,0.490,1.002,0.703,0.318,0.571,0.539,�k,3.8,��
2023/05/11,07:30,0.551,0.810,0.489,1.000,0.703,0.320,0.571,0.539,�k�k��,3.5,��
2023/05/11,07:40,0.551,0.809,0.489,1.000,0.703,0.320,0.571,0.540,�k,4.2,��
2023/05/11,07:50,0.551,0.813,0.489,1.002,0.702,0.319,0.573,0.539,�k,4.0,��
2023/05/11,08:00,0.551,0.809,0.489,1.002,0.700,0.319,0.572,0.540,�k�k��,4.1,��
2023/05/11,08:10,0.552,0.806,0.489,0.999,0.703,0.318,0.571,0.540,�k�k��,4.1,��
2023/05/11,08:20,0.551,0.812,0.489,1.002,0.703,0.321,0.571,0.538,�k�k��,3.9,��
2023/05/11,08:30,0.550,0.808,0.490,1.001,0.704,0.320,0.571,0.540,�k�k��,4.9,��
2023/05/11,08:40,0.550,0.808,0.489,1.001,0.702,0.320,0.570,0.537,�k�k��,4.0,��
2023/05/11,08:50,0.550,0.810,0.489,1.002,0.703,0.319,0.569,0.537,�k��,4.0,��
2023/05/11,09:00,0.550,0.808,0.490,1.001,0.701,0.318,0.570,0.537,�k��,5.1,��
2023/05/11,09:10,0.550,0.809,0.488,1.002,0.701,0.319,0.568,0.537,�k��,4.4,��
2023/05/11,09:20,0.551,0.812,0.488,1.000,0.703,0.322,0.569,0.536,�k��,4.7,��
2023/05/11,09:30,0.552,0.810,0.490,1.000,0.701,0.321,0.569,0.537,�k��,4.7,��
2023/05/11,09:40,0.552,0.811,0.488,1.000,0.704,0.320,0.570,0.536,�k��,5.9,��
2023/05/11,09:50,0.554,0.810,0.489,1.002,0.702,0.321,0.568,0.536,�k��,5.8,��
2023/05/11,10:00,0.553,0.811,0.489,0.999,0.701,0.319,0.569,0.539,�k��,5.8,��
2023/05/11,10:10,0.552,0.813,0.490,1.000,0.704,0.320,0.570,0.537,�k��,5.4,��
2023/05/11,10:20,0.553,0.811,0.489,1.000,0.704,0.319,0.570,0.539,�k��,5.1,��
2023/05/11,10:30,0.554,0.812,0.489,1.002,0.705,0.320,0.568,0.537,���k��,4.9,��
2023/05/11,10:40,0.552,0.812,0.488,1.002,0.704,0.322,0.568,0.539,�k��,4.8,��
2023/05/11,10:50,0.554,0.813,0.489,1.003,0.705,0.321,0.570,0.539,���k��,5.2,��
2023/05/11,11:00,0.553,0.813,0.487,1.004,0.706,0.320,0.571,0.539,���k��,4.3,��
2023/05/11,11:10,0.553,0.812,0.488,1.004,0.705,0.319,0.570,0.538,�k��,4.9,��
2023/05/11,11:20,0.552,0.812,0.489,1.002,0.705,0.321,0.570,0.540,���k��,4.4,��
2023/05/11,11:30,0.552,0.813,0.490,1.001,0.705,0.320,0.570,0.538,���k��,4.3,��
2023/05/11,11:40,0.554,0.814,0.489,1.000,0.705,0.320,0.571,0.538,���k��,4.9,��
2023/05/11,11:50,0.555,0.814,0.491,0.998,0.705,0.321,0.569,0.538,�k��,5.4,��
2023/05/11,12:00,0.556,0.816,0.489,1.001,0.706,0.320,0.570,0.539,���k��,4.3,��
2023/05/11,12:10,0.555,0.814,0.488,1.001,0.707,0.320,0.571,0.537,���k��,5.0,��
2023/05/11,12:20,0.555,0.815,0.490,1.000,0.708,0.321,0.570,0.538,���k��,4.5,��
2023/05/11,12:30,0.555,0.815,0.491,1.001,0.708,0.320,0.570,0.537,���k��,3.9,��
2023/05/11,12:40,0.555,0.814,0.491,1.001,0.706,0.321,0.570,0.540,���k��,4.0,��
2023/05/11,12:50,0.555,0.814,0.491,1.004,0.708,0.321,0.571,0.537,��,3.8,��
2023/05/11,13:00,0.556,0.816,0.490,1.004,0.707,0.320,0.570,0.539,��,3.5,��
2023/05/11,13:10,0.555,0.815,0.491,1.004,0.705,0.320,0.572,0.538,��,3.8,��
2023/05/11,13:20,0.557,0.814,0.492,1.004,0.707,0.321,0.571,0.540,���쓌,4.1,��
2023/05/11,13:30,0.556,0.816,0.491,1.003,0.708,0.321,0.570,0.539,���쓌,3.5,��
2023/05/11,13:40,0.555,0.815,0.490,1.004,0.709,0.319,0.571,0.538,���쓌,4.0,��
2023/05/11,13:50,0.555,0.815,0.490,1.007,0.710,0.321,0.572,0.539,���쓌,3.4,��
2023/05/11,14:00,0.554,0.816,0.491,1.005,0.711,0.322,0.572,0.540,�쓌,3.3,��
2023/05/11,14:10,0.555,0.817,0.490,1.004,0.709,0.321,0.571,0.539,���쓌,3.3,��
2023/05/11,14:20,0.556,0.816,0.491,0.999,0.709,0.321,0.570,0.538,���쓌,3.0,��
2023/05/11,14:30,0.555,0.814,0.491,0.992,0.710,0.320,0.573,0.538,�쓌,4.0,��
2023/05/11,14:40,0.555,0.818,0.491,0.986,0.710,0.321,0.571,0.539,���쓌,3.0,��
2023/05/11,14:50,0.558,0.814,0.491,0.983,0.710,0.321,0.572,0.540,�쓌,3.3,��
2023/05/11,15:00,0.557,0.815,0.490,0.978,0.710,0.321,0.573,0.540,��,3.6,��
2023/05/11,15:10,0.556,0.816,0.491,0.975,0.707,0.320,0.572,0.539,���쓌,4.2,��
2023/05/11,15:20,0.558,0.815,0.490,0.976,0.711,0.321,0.573,0.539,���쓌,3.4,��
2023/05/11,15:30,0.557,0.819,0.490,0.975,0.709,0.321,0.570,0.538,��쓌,3.5,��
2023/05/11,15:40,0.556,0.816,0.491,0.981,0.711,0.322,0.573,0.540,��쓌,4.1,��
2023/05/11,15:50,0.558,0.816,0.491,0.982,0.711,0.322,0.573,0.538,��쓌,3.7,��
2023/05/11,16:00,0.557,0.815,0.491,0.981,0.711,0.320,0.571,0.540,��쓌,4.0,��
2023/05/11,16:10,0.556,0.815,0.491,0.979,0.711,0.321,0.573,0.539,��쓌,4.4,��
2023/05/11,16:20,0.557,0.817,0.490,0.978,0.710,0.321,0.574,0.540,��쓌,4.3,��
2023/05/11,16:30,0.558,0.819,0.491,0.982,0.709,0.321,0.573,0.539,��쓌,4.6,��
2023/05/11,16:40,0.556,0.816,0.492,0.983,0.710,0.321,0.572,0.539,��쓌,4.7,��
2023/05/11,16:50,0.558,0.817,0.491,0.980,0.710,0.321,0.571,0.540,��쓌,4.1,��
2023/05/11,17:00,0.555,0.817,0.491,0.981,0.711,0.322,0.573,0.542,��쓌,3.4,��
2023/05/11,17:10,0.557,0.821,0.492,0.982,0.711,0.323,0.572,0.539,��쓌,3.7,��
2023/05/11,17:20,0.557,0.819,0.490,0.983,0.710,0.324,0.574,0.541,��쓌,4.0,��
2023/05/11,17:30,0.556,0.820,0.492,0.981,0.708,0.323,0.573,0.539,��쓌,4.0,��
2023/05/11,17:40,0.556,0.819,0.491,0.982,0.710,0.324,0.572,0.542,��쓌,3.7,��
2023/05/11,17:50,0.555,0.823,0.491,0.984,0.711,0.323,0.574,0.542,��,4.0,��
2023/05/11,18:00,0.555,0.821,0.491,0.984,0.710,0.324,0.572,0.540,��,4.4,��
2023/05/11,18:10,0.558,0.822,0.491,0.982,0.710,0.322,0.570,0.540,��,5.1,��
2023/05/11,18:20,0.557,0.820,0.492,0.984,0.711,0.322,0.572,0.540,��,5.4,��
2023/05/11,18:30,0.560,0.820,0.491,0.985,0.712,0.324,0.572,0.541,��,5.5,��
2023/05/11,18:40,0.559,0.820,0.490,0.984,0.713,0.323,0.572,0.540,��,5.5,��
2023/05/11,18:50,0.557,0.819,0.490,0.985,0.712,0.323,0.571,0.542,��쐼,4.7,��
2023/05/11,19:00,0.558,0.819,0.493,0.985,0.713,0.324,0.572,0.541,��쐼,3.9,��
2023/05/11,19:10,0.558,0.819,0.493,0.985,0.713,0.322,0.573,0.541,��쐼,4.7,��
2023/05/11,19:20,0.557,0.821,0.492,0.986,0.712,0.322,0.571,0.538,��쐼,5.2,��
2023/05/11,19:30,0.558,0.821,0.494,0.987,0.713,0.323,0.572,0.541,��,5.6,��
2023/05/11,19:40,0.557,0.818,0.492,0.985,0.713,0.322,0.574,0.540,��쐼,5.2,��
2023/05/11,19:50,0.559,0.819,0.494,0.983,0.712,0.322,0.573,0.540,��,5.1,��
2023/05/11,20:00,0.557,0.820,0.493,0.987,0.711,0.323,0.573,0.539,��쐼,5.2,��
2023/05/11,20:10,0.558,0.821,0.491,0.988,0.714,0.324,0.573,0.540,��,6.2,��
2023/05/11,20:20,0.558,0.819,0.495,0.986,0.712,0.323,0.574,0.541,��쐼,6.4,��
2023/05/11,20:30,0.557,0.820,0.491,0.986,0.713,0.324,0.574,0.540,�쐼,4.3,��
2023/05/11,20:40,0.558,0.819,0.491,0.986,0.713,0.323,0.574,0.540,�쐼,4.4,��
2023/05/11,20:50,0.558,0.819,0.494,0.985,0.713,0.323,0.573,0.540,�쐼,3.8,��
2023/05/11,21:00,0.559,0.818,0.494,0.985,0.713,0.322,0.572,0.540,���쐼,3.3,��
2023/05/11,21:10,0.557,0.820,0.492,0.986,0.710,0.323,0.572,0.540,���k��,4.6,��
2023/05/11,21:20,0.557,0.820,0.492,0.986,0.714,0.322,0.573,0.540,���k��,5.3,��
2023/05/11,21:30,0.557,0.820,0.492,0.985,0.711,0.322,0.574,0.540,���k��,5.2,��
2023/05/11,21:40,0.556,0.818,0.493,0.987,0.712,0.322,0.573,0.541,�k��,4.6,��
2023/05/11,21:50,0.557,0.820,0.492,0.988,0.714,0.323,0.573,0.540,�k��,4.9,��
2023/05/11,22:00,0.557,0.818,0.493,0.987,0.713,0.322,0.573,0.540,�k��,4.6,��
2023/05/11,22:10,0.556,0.817,0.491,0.984,0.713,0.323,0.574,0.541,�k��,4.2,��
2023/05/11,22:20,0.556,0.820,0.491,0.987,0.714,0.323,0.573,0.541,���k��,4.3,��
2023/05/11,22:30,0.555,0.818,0.492,0.987,0.713,0.323,0.574,0.540,���k��,4.8,��
2023/05/11,22:40,0.558,0.819,0.492,0.984,0.712,0.323,0.574,0.540,���k��,4.4,��
2023/05/11,22:50,0.558,0.820,0.495,0.987,0.713,0.321,0.573,0.540,���k��,5.0,��
2023/05/11,23:00,0.556,0.817,0.492,0.987,0.712,0.321,0.572,0.541,���k��,4.8,��
2023/05/11,23:10,0.556,0.818,0.493,0.988,0.712,0.322,0.573,0.541,���k��,5.6,��
2023/05/11,23:20,0.556,0.819,0.493,0.987,0.713,0.323,0.574,0.541,���k��,5.7,��
2023/05/11,23:30,0.557,0.821,0.491,0.989,0.713,0.322,0.574,0.540,�k��,6.7,��
2023/05/11,23:40,0.556,0.819,0.491,0.987,0.713,0.322,0.573,0.541,�k��,6.6,��
2023/05/11,23:50,0.556,0.819,0.491,0.989,0.714,0.321,0.571,0.541,���k��,6.0,��
